Location: Doverdale
(52.2833°N, 2.2000°W)
Time: 03:10:30
(UTC+00:00)

Cosmos 1386 Rocket - Pass Details

Date: 29 October 2020
Orbit: 930 x 1005 km, 83.0° (Epoch: 24 November)

Event Time Altitude Azimuth Distance (km) Brightness Sun altitude
Rises 18:13:52 0° 350° (N) 3,749 7.6 -14.1°
Reaches altitude 10° 18:16:26 10° 353° (N) 2,793 6.9 -14.5°
Maximum altitude 18:22:52 71° 77° (ENE) 1,060 4.5 -15.5°
Drops below altitude 10° 18:29:10 10° 162° (SSE) 2,745 6.7 -16.5°
Sets 18:31:41 0° 164° (SSE) 3,680 7.4 -16.8°
